DW7661 Weather Reports


time (UTC)temp
C
wind
direction
speed
KPH
gust
KPH
rain 1hr
cm
rain 24hr
cm
rain mn
cm
humidity
%
barometer
mb
20260506233603 10 0 0.0 0.0 0.00 0.00 0.00 77 1013.1
20260506232703 10 0 0.0 3.2 0.00 0.00 0.00 77 1013.1
20260506231803 10 5 0.0 3.2 0.00 0.00 0.00 76 1013.0
20260506230903 10 0 0.0 0.0 0.00 0.00 0.00 76 1013.0
20260506230003 10 15 0.0 3.2 0.00 0.00 0.00 75 1012.9
20260506225617 10 19 0.0 3.2 0.00 0.00 0.00 75 1012.8
20260506224503 10 39 0.0 3.2 0.00 0.00 0.00 74 1012.8
20260506223817 10 68 0.0 3.2 0.00 0.00 0.00 75 1012.9
20260506222703 10 0 0.0 0.0 0.00 0.00 0.00 75 1012.8
20260506221803 11 0 0.0 0.0 0.00 0.00 0.00 75 1012.8
20260506220903 11 0 0.0 0.0 0.00 0.00 0.00 72 1012.7
20260506220004 11 65 0.0 3.2 0.00 0.00 0.00 72 1012.7
20260506215403 11 65 0.0 3.2 0.00 0.00 0.00 72 1012.7
20260506214503 11 64 0.0 3.2 0.00 0.00 0.00 72 1012.7
20260506213603 11 0 0.0 0.0 0.00 0.00 0.00 72 1012.6
20260506212703 11 0 0.0 0.0 0.00 0.00 0.00 73 1012.5
20260506211803 11 0 0.0 0.0 0.00 0.00 0.00 74 1012.5
20260506210903 11 0 0.0 0.0 0.00 0.00 0.00 73 1012.4
20260506210004 11 0 0.0 0.0 0.00 0.00 0.00 73 1012.4
20260506205403 11 0 0.0 0.0 0.00 0.00 0.00 71 1012.3
20260506204717 11 0 0.0 0.0 0.00 0.00 0.00 70 1012.3
20260506203817 11 64 0.0 1.6 0.00 0.00 0.00 68 1012.1
20260506202703 11 64 0.0 3.2 0.00 0.00 0.00 68 1012.0
20260506201803 11 69 0.0 4.8 0.00 0.00 0.00 67 1012.1
20260506200903 11 78 0.0 3.2 0.00 0.00 0.00 66 1012.0
20260506200218 11 82 0.0 3.2 0.00 0.00 0.00 65 1012.0
20260506195403 11 86 0.0 3.2 0.00 0.00 0.00 67 1011.9
20260506194503 11 85 0.0 3.2 0.00 0.00 0.00 65 1011.7
20260506193603 12 89 1.6 4.8 0.00 0.00 0.00 65 1011.7
20260506192703 12 81 1.6 4.8 0.00 0.00 0.00 64 1011.6
20260506191803 12 79 1.6 8.0 0.00 0.00 0.00 64 1011.6
20260506190903 12 62 3.2 8.0 0.00 0.00 0.00 64 1011.5
20260506190004 12 58 1.6 8.0 0.00 0.00 0.00 64 1011.4
20260506185403 12 50 3.2 11.3 0.00 0.00 0.00 63 1011.4
20260506184718 12 56 4.8 11.3 0.00 0.00 0.00 62 1011.2
20260506183604 12 71 6.4 14.5 0.00 0.00 0.00 61 1011.1
20260506182703 12 60 6.4 14.5 0.00 0.00 0.00 61 1011.1
20260506181803 12 58 4.8 14.5 0.00 0.00 0.00 62 1010.9
20260506180903 13 59 4.8 14.5 0.00 0.00 0.00 61 1010.7
20260506180217 13 40 3.2 8.0 0.00 0.00 0.00 61 1010.7
20260506175404 13 32 4.8 9.7 0.00 0.00 0.00 59 1010.5
20260506174503 13 37 4.8 8.0 0.00 0.00 0.00 60 1010.4
20260506173603 13 43 4.8 14.5 0.00 0.00 0.00 59 1010.3
20260506172703 13 47 6.4 16.1 0.00 0.00 0.00 58 1010.2
20260506171803 13 39 4.8 12.9 0.00 0.00 0.00 59 1010.2
20260506170903 13 41 4.8 11.3 0.00 0.00 0.00 58 1010.1
20260506170004 13 31 6.4 14.5 0.00 0.00 0.00 58 1010.0
20260506165403 13 38 8.0 14.5 0.00 0.00 0.00 58 1009.9
20260506164503 13 31 6.4 12.9 0.00 0.00 0.00 59 1009.7
20260506163817 13 33 6.4 12.9 0.00 0.00 0.00 57 1009.8
20260506162703 14 23 6.4 11.3 0.00 0.00 0.00 59 1009.7
20260506161803 14 22 6.4 14.5 0.00 0.00 0.00 59 1009.6
20260506160903 14 23 6.4 11.3 0.00 0.00 0.00 60 1009.6
20260506160003 14 27 6.4 14.5 0.00 0.00 0.00 60 1009.6
20260506155403 14 27 8.0 12.9 0.00 0.00 0.00 60 1009.6
20260506154503 14 4 8.0 14.5 0.00 0.00 0.00 60 1009.6
20260506153603 15 339 6.4 14.5 0.00 0.00 0.00 62 1009.6
20260506152703 15 322 6.4 19.3 0.00 0.00 0.00 64 1009.6
20260506152017 15 305 6.4 19.3 0.00 0.00 0.00 66 1009.6
20260506150903 15 337 6.4 16.1 0.00 0.00 0.00 67 1009.6
20260506150003 14 338 6.4 16.1 0.00 0.00 0.00 65 1009.6
20260506145403 14 339 8.0 16.1 0.00 0.00 0.00 65 1009.6
20260506144503 14 332 6.4 17.7 0.00 0.00 0.00 66 1009.6
20260506143603 14 356 6.4 14.5 0.00 0.00 0.00 63 1009.7
20260506142703 14 6 8.0 16.1 0.00 0.00 0.00 62 1009.6
20260506141803 14 9 8.0 14.5 0.00 0.00 0.00 62 1009.6
20260506140903 14 11 9.7 17.7 0.00 0.00 0.00 60 1009.6
20260506140003 15 353 9.7 19.3 0.00 0.00 0.00 61 1009.6
20260506135403 15 344 8.0 17.7 0.00 0.00 0.00 65 1009.6
20260506134503 15 334 6.4 20.9 0.00 0.00 0.00 68 1009.5
20260506133603 14 347 8.0 20.9 0.00 0.00 0.00 69 1009.6
20260506132703 14 339 8.0 16.1 0.00 0.00 0.00 70 1009.6
20260506131803 13 340 8.0 17.7 0.00 0.00 0.00 72 1009.7
20260506131118 13 331 6.4 16.1 0.00 0.00 0.00 72 1009.6
20260506130003 13 350 8.0 14.5 0.00 0.00 0.00 74 1009.6
20260506125403 13 336 6.4 14.5 0.00 0.00 0.00 73 1009.5
20260506124503 13 324 8.0 17.7 0.00 0.00 0.00 73 1009.4
20260506123603 13 328 8.0 19.3 0.00 0.00 0.00 71 1009.4
20260506122703 14 334 8.0 17.7 0.00 0.00 0.00 70 1009.3
20260506121803 14 336 6.4 16.1 0.00 0.00 0.00 70 1009.3
20260506120903 14 338 6.4 17.7 0.00 0.00 0.00 70 1009.3
20260506120003 15 334 8.0 20.9 0.00 0.00 0.00 69 1009.3
20260506115403 15 335 8.0 19.3 0.00 0.00 0.00 70 1009.3
20260506114503 15 320 6.4 16.1 0.00 0.00 0.00 70 1009.2
20260506113603 14 333 8.0 19.3 0.00 0.00 0.00 72 1009.2
20260506112703 14 317 8.0 16.1 0.00 0.00 0.00 73 1009.2
20260506111803 14 310 4.8 14.5 0.00 0.00 0.00 74 1009.2
20260506110903 13 336 8.0 16.1 0.00 0.00 0.00 73 1009.3
20260506110003 13 320 4.8 12.9 0.00 0.00 0.00 74 1009.3
20260506105403 13 328 6.4 16.1 0.00 0.00 0.00 74 1009.3
20260506104503 13 319 8.0 14.5 0.00 0.00 0.00 72 1009.3
20260506103603 13 350 8.0 17.7 0.00 0.00 0.00 73 1009.3
20260506102703 13 343 6.4 14.5 0.00 0.00 0.00 73 1009.3
20260506101803 13 336 6.4 14.5 0.00 0.00 0.00 73 1009.3
20260506101117 13 332 6.4 17.7 0.00 0.00 0.00 74 1009.3
20260506100003 13 335 8.0 14.5 0.00 0.00 0.00 74 1009.2
20260506095403 13 333 6.4 14.5 0.00 0.00 0.00 75 1009.2
20260506094503 12 338 8.0 24.1 0.00 0.00 0.00 76 1009.2
20260506093816 12 344 6.4 24.1 0.00 0.00 0.00 77 1009.2
20260506092703 12 351 8.0 17.7 0.00 0.00 0.00 78 1009.2
20260506091803 12 343 6.4 14.5 0.00 0.00 0.00 79 1009.2
20260506090903 12 345 8.0 16.1 0.00 0.00 0.00 79 1009.2
20260506090003 12 353 8.0 16.1 0.00 0.00 0.00 78 1009.1
20260506085403 12 344 6.4 16.1 0.00 0.00 0.00 79 1009.1
20260506084503 12 345 8.0 17.7 0.00 0.00 0.00 80 1009.1
20260506083603 11 354 8.0 19.3 0.00 0.00 0.00 80 1009.0
20260506082703 11 342 8.0 17.7 0.00 0.00 0.00 80 1009.0
20260506081803 11 338 8.0 16.1 0.00 0.00 0.00 82 1009.0
20260506080903 11 340 8.0 16.1 0.00 0.00 0.00 82 1008.9
20260506072917 10 338 8.0 17.7 0.00 0.00 0.00 84 1008.8
20260506071803 10 340 6.4 16.1 0.00 0.00 0.00 84 1008.9
20260506071118 10 333 6.4 16.1 0.00 0.00 0.00 85 1008.9
20260506061803 10 354 8.0 17.7 0.00 0.00 0.00 86 1008.6
20260506060903 10 353 8.0 17.7 0.00 0.00 0.00 86 1008.6
20260506050903 10 360 9.7 24.1 0.00 0.00 0.00 80 1008.5
20260506044717 10 350 8.0 17.7 0.00 0.00 0.00 76 1008.5
20260506043603 10 341 8.0 19.3 0.00 0.00 0.00 77 1008.5
20260506042703 10 345 6.4 19.3 0.00 0.00 0.00 77 1008.4
20260506041803 10 343 6.4 19.3 0.00 0.00 0.00 77 1008.4
20260506040903 10 341 8.0 20.9 0.00 0.00 0.00 78 1008.4
20260506040218 10 338 8.0 19.3 0.00 0.00 0.00 78 1008.6
20260506035403 10 338 8.0 16.1 0.00 0.00 0.00 78 1008.5
20260506034717 10 348 8.0 17.7 0.00 0.00 0.00 78 1008.5
20260506033603 10 352 8.0 16.1 0.00 0.00 0.00 78 1008.6
20260506032703 10 351 9.7 22.5 0.00 0.00 0.00 78 1008.6
20260506031803 10 343 8.0 19.3 0.00 0.00 0.00 79 1008.6
20260506030903 10 349 6.4 19.3 0.00 0.00 0.00 80 1008.6
20260506030218 10 346 6.4 14.5 0.00 0.00 0.00 80 1008.7
20260506025403 9 336 6.4 16.1 0.00 0.00 0.00 80 1008.8
20260506024503 9 342 4.8 12.9 0.00 0.00 0.00 80 1008.9
20260506023603 9 341 6.4 17.7 0.00 0.00 0.00 80 1008.9
20260506022703 9 347 6.4 20.9 0.00 0.00 0.00 79 1008.9
20260506021803 10 352 8.0 20.9 0.00 0.00 0.00 78 1009.0
20260506020903 10 353 8.0 20.9 0.00 0.00 0.00 78 1009.0
20260506020003 10 355 8.0 17.7 0.00 0.00 0.00 78 1009.1
20260506015617 9 356 8.0 17.7 0.00 0.00 0.00 78 1009.1
20260506014718 9 347 8.0 16.1 0.00 0.00 0.00 79 1009.1
20260506013818 9 344 6.4 14.5 0.00 0.00 0.00 80 1009.1
20260506012917 9 335 6.4 16.1 0.00 0.00 0.00 80 1009.1
20260506011803 9 349 6.4 14.5 0.00 0.00 0.00 79 1009.0
20260506011118 9 349 6.4 11.3 0.00 0.00 0.00 79 1009.1
20260506010003 9 337 4.8 11.3 0.00 0.00 0.00 80 1009.1
20260506005403 9 346 4.8 11.3 0.00 0.00 0.00 80 1009.1
20260506004504 9 343 6.4 14.5 0.00 0.00 0.00 80 1009.2
20260506003603 9 340 4.8 16.1 0.00 0.00 0.00 80 1009.3
20260506002703 10 345 6.4 14.5 0.00 0.00 0.00 79 1009.4
20260506002018 10 346 4.8 11.3 0.00 0.00 0.00 79 1009.5
20260506000903 10 345 4.8 12.9 0.00 0.00 0.00 79 1009.5
20260506000003 10 351 6.4 12.9 0.00 0.00 0.00 77 1009.5
20260505235403 10 352 8.0 19.3 0.00 0.00 0.00 77 1009.6